When you browse on this site, cookies collect data to enhance your experience and personalize the content and advertising you see.
Visit our Privacy Policy to learn more. By continuing to use the site, you agree to this use of cookies and data.
  • en France
  • Liste des pays
  • À 7 jours
  • Température de l'eau
  • Carte satellitaire
  • Carte météo
  • Widgets météo
  • user-avatar
    Se connecter

    Météo par heure à Astahnovo

    Ce jour, 18 Février, Lundi

    Heure Température Précipitation Vent Pression Humidité
    00:00 -4°C° 0 mm 3 m/s 755 mmHg 89%
    01:00 -3°C° 0 mm 2 m/s 756 mmHg 90%
    02:00 -5°C° 0 mm 2 m/s 756 mmHg 94%
    03:00 -5°C° 0 mm 2 m/s 756 mmHg 94%
    04:00 -5°C° 0 mm 2 m/s 757 mmHg 95%
    05:00 -4°C° 0 mm 1 m/s 757 mmHg 95%
    06:00 -4°C° 0 mm 1 m/s 758 mmHg 94%
    07:00 -4°C° 0 mm 1 m/s 758 mmHg 94%
    08:00 -4°C° 0 mm 1 m/s 758 mmHg 93%
    09:00 -2°C° 0 mm 1 m/s 759 mmHg 86%
    10:00 -2°C° 0 mm 0 m/s 759 mmHg 78%
    11:00 -1°C° 0 mm 0 m/s 759 mmHg 70%
    12:00 +1°C° 0 mm 1 m/s 759 mmHg 66%
    13:00 +2°C° 0 mm 1 m/s 759 mmHg 62%
    14:00 +2°C° 0 mm 1 m/s 758 mmHg 58%
    15:00 +1°C° 0 mm 1 m/s 758 mmHg 63%
    16:00 +1°C° 0 mm 1 m/s 758 mmHg 68%
    17:00 -2°C° 0 mm 2 m/s 758 mmHg 73%
    18:00 -2°C° 0 mm 2 m/s 757 mmHg 74%
    19:00 -3°C° 0 mm 2 m/s 757 mmHg 76%
    20:00 -4°C° 0 mm 3 m/s 757 mmHg 77%
    21:00 -4°C° 0 mm 3 m/s 756 mmHg 78%
    22:00 -4°C° 0 mm 3 m/s 756 mmHg 78%
    23:00 -4°C° 0 mm 4 m/s 756 mmHg 78%

    Demain, 19 Février, Mardi

    Heure Température Précipitation Vent Pression Humidité
    00:00 -3°C° 0 mm 4 m/s 755 mmHg 80%
    01:00 -3°C° 0 mm 4 m/s 755 mmHg 82%
    02:00 -3°C° 0 mm 4 m/s 754 mmHg 83%
    03:00 -3°C° 0 mm 4 m/s 754 mmHg 84%
    04:00 -3°C° 0 mm 4 m/s 753 mmHg 86%
    05:00 -2°C° 0 mm 4 m/s 753 mmHg 87%
    06:00 -2°C° 0 mm 4 m/s 752 mmHg 88%
    07:00 -2°C° 0 mm 4 m/s 752 mmHg 89%
    08:00 -2°C° 0 mm 4 m/s 751 mmHg 90%
    09:00 -1°C° 0 mm 5 m/s 751 mmHg 87%
    10:00 0°C° 0 mm 5 m/s 750 mmHg 84%
    11:00 +1°C° 0 mm 5 m/s 750 mmHg 82%
    12:00 +1°C° 0 mm 5 m/s 749 mmHg 82%
    13:00 +1°C° 0 mm 5 m/s 748 mmHg 83%
    14:00 +1°C° 0 mm 5 m/s 748 mmHg 84%
    15:00 +1°C° 0 mm 5 m/s 747 mmHg 85%
    16:00 +1°C° 0 mm 5 m/s 746 mmHg 86%
    17:00 +1°C° 0 mm 5 m/s 746 mmHg 88%
    18:00 +1°C° 0 mm 5 m/s 745 mmHg 88%
    19:00 +1°C° 0 mm 5 m/s 744 mmHg 89%
    20:00 +1°C° 0 mm 5 m/s 744 mmHg 89%
    21:00 +1°C° 0 mm 5 m/s 743 mmHg 89%
    22:00 0°C° 0 mm 5 m/s 742 mmHg 89%
    23:00 0°C° 0 mm 5 m/s 742 mmHg 88%

    Après-demain, 20 Février, Mercredi

    Heure Température Précipitation Vent Pression Humidité
    00:00 +1°C° 0.2 mm 5 m/s 742 mmHg 89%
    01:00 +1°C° 0.2 mm 5 m/s 742 mmHg 89%
    02:00 +1°C° 0.2 mm 5 m/s 741 mmHg 89%
    03:00 +1°C° 0 mm 4 m/s 741 mmHg 90%
    04:00 +1°C° 0 mm 4 m/s 741 mmHg 90%
    05:00 +1°C° 0 mm 4 m/s 741 mmHg 91%
    06:00 +1°C° 0.1 mm 4 m/s 741 mmHg 90%
    07:00 +1°C° 0.1 mm 4 m/s 741 mmHg 88%
    08:00 0°C° 0.1 mm 4 m/s 741 mmHg 87%
    09:00 +1°C° 0 mm 5 m/s 741 mmHg 84%
    10:00 +1°C° 0 mm 5 m/s 741 mmHg 82%
    11:00 +1°C° 0 mm 5 m/s 741 mmHg 79%
    12:00 +1°C° 0.1 mm 5 m/s 741 mmHg 80%
    13:00 +1°C° 0.1 mm 5 m/s 742 mmHg 80%
    14:00 +1°C° 0.1 mm 5 m/s 742 mmHg 80%
    15:00 +1°C° 0 mm 5 m/s 741 mmHg 80%
    16:00 +1°C° 0 mm 5 m/s 741 mmHg 81%
    17:00 0°C° 0 mm 5 m/s 741 mmHg 81%
    18:00 -1°C° 0.1 mm 5 m/s 742 mmHg 78%
    19:00 -2°C° 0.1 mm 6 m/s 742 mmHg 74%
    20:00 -3°C° 0.1 mm 6 m/s 742 mmHg 71%
    21:00 -4°C° 0.1 mm 6 m/s 743 mmHg 72%
    22:00 -4°C° 0.1 mm 6 m/s 744 mmHg 72%
    23:00 -5°C° 0.1 mm 6 m/s 744 mmHg 73%

    21 Février, Jeudi

    Heure Température Précipitation Vent Pression Humidité
    00:00 -5°C° 0.1 mm 6 m/s 745 mmHg 72%
    01:00 -5°C° 0.1 mm 6 m/s 746 mmHg 71%
    02:00 -5°C° 0.1 mm 6 m/s 746 mmHg 70%
    03:00 -6°C° 0.1 mm 6 m/s 746 mmHg 69%
    04:00 -8°C° 0.1 mm 6 m/s 747 mmHg 68%
    05:00 -8°C° 0.1 mm 6 m/s 747 mmHg 68%
    06:00 -8°C° 0 mm 6 m/s 748 mmHg 66%
    07:00 -9°C° 0 mm 6 m/s 748 mmHg 64%
    08:00 -9°C° 0 mm 6 m/s 749 mmHg 63%
    09:00 -9°C° 0 mm 6 m/s 750 mmHg 61%
    10:00 -8°C° 0 mm 6 m/s 750 mmHg 60%
    11:00 -8°C° 0 mm 6 m/s 751 mmHg 59%
    12:00 -8°C° 0 mm 6 m/s 752 mmHg 58%
    13:00 -8°C° 0 mm 6 m/s 752 mmHg 57%
    14:00 -6°C° 0 mm 6 m/s 753 mmHg 57%
    15:00 -8°C° 0 mm 6 m/s 753 mmHg 58%
    16:00 -7°C° 0 mm 5 m/s 754 mmHg 60%
    17:00 -8°C° 0 mm 5 m/s 755 mmHg 62%
    18:00 -8°C° 0 mm 5 m/s 756 mmHg 63%
    19:00 -8°C° 0 mm 5 m/s 757 mmHg 65%
    20:00 -10°C° 0 mm 5 m/s 757 mmHg 66%
    21:00 -10°C° 0 mm 5 m/s 758 mmHg 66%
    22:00 -9°C° 0 mm 4 m/s 759 mmHg 66%
    23:00 -9°C° 0 mm 4 m/s 760 mmHg 66%

    22 Février, Vendredi

    Heure Température Précipitation Vent Pression Humidité
    00:00 -10°C° 0 mm 4 m/s 760 mmHg 67%
    01:00 -10°C° 0 mm 4 m/s 761 mmHg 68%
    02:00 -9°C° 0 mm 3 m/s 762 mmHg 70%
    03:00 -9°C° 0 mm 3 m/s 763 mmHg 71%
    04:00 -10°C° 0 mm 3 m/s 763 mmHg 71%
    05:00 -10°C° 0 mm 3 m/s 764 mmHg 72%
    06:00 -10°C° 0 mm 3 m/s 765 mmHg 72%
    07:00 -10°C° 0 mm 3 m/s 765 mmHg 72%
    08:00 -10°C° 0 mm 3 m/s 766 mmHg 72%
    09:00 -9°C° 0 mm 3 m/s 767 mmHg 69%
    10:00 -8°C° 0 mm 3 m/s 767 mmHg 67%
    11:00 -7°C° 0 mm 3 m/s 768 mmHg 64%
    12:00 -6°C° 0 mm 3 m/s 768 mmHg 61%
    13:00 -6°C° 0 mm 3 m/s 768 mmHg 57%
    14:00 -4°C° 0 mm 2 m/s 769 mmHg 54%
    15:00 -4°C° 0 mm 2 m/s 769 mmHg 57%
    16:00 -5°C° 0 mm 2 m/s 769 mmHg 59%
    17:00 -3°C° 0 mm 1 m/s 769 mmHg 61%
    18:00 -4°C° 0 mm 1 m/s 769 mmHg 63%
    19:00 -4°C° 0 mm 1 m/s 769 mmHg 65%
    20:00 -4°C° 0 mm 1 m/s 770 mmHg 66%
    21:00 -6°C° 0 mm 2 m/s 769 mmHg 65%
    22:00 -6°C° 0 mm 2 m/s 769 mmHg 64%
    23:00 -6°C° 0 mm 2 m/s 769 mmHg 62%

    23 Février, Samedi

    Heure Température Précipitation Vent Pression Humidité
    00:00 -7°C° 0 mm 3 m/s 768 mmHg 58%
    01:00 -6°C° 0 mm 3 m/s 767 mmHg 55%
    02:00 -7°C° 0 mm 4 m/s 767 mmHg 51%
    03:00 -7°C° 0.1 mm 4 m/s 766 mmHg 58%
    04:00 -7°C° 0.1 mm 4 m/s 765 mmHg 66%
    05:00 -7°C° 0.1 mm 4 m/s 764 mmHg 73%
    06:00 -7°C° 0.7 mm 4 m/s 763 mmHg 79%
    07:00 -7°C° 0.7 mm 5 m/s 762 mmHg 85%
    08:00 -7°C° 0.7 mm 5 m/s 761 mmHg 91%
    09:00 -6°C° 0.9 mm 5 m/s 760 mmHg 90%
    10:00 -5°C° 0.9 mm 5 m/s 759 mmHg 89%
    11:00 -4°C° 0.9 mm 5 m/s 758 mmHg 87%
    12:00 -2°C° 0 mm 4 m/s 758 mmHg 88%
    13:00 -1°C° 0 mm 4 m/s 757 mmHg 89%
    14:00 0°C° 0 mm 4 m/s 756 mmHg 90%
    15:00 +1°C° 0 mm 3 m/s 756 mmHg 92%
    16:00 +1°C° 0 mm 3 m/s 756 mmHg 94%
    17:00 +1°C° 0 mm 3 m/s 756 mmHg 96%
    18:00 +1°C° 0 mm 3 m/s 756 mmHg 96%
    19:00 +2°C° 0 mm 3 m/s 756 mmHg 96%
    20:00 +2°C° 0 mm 3 m/s 756 mmHg 95%
    21:00 +1°C° 0 mm 3 m/s 757 mmHg 96%
    22:00 +1°C° 0 mm 3 m/s 757 mmHg 96%
    23:00 0°C° 0 mm 3 m/s 757 mmHg 96%
    Voir plus